[[{"header":{"parameterUnit":"m.s-1","parameterCategory":1,"la1":30.2991,"la2":30.254,"lo1":-89.0895,"lo2":-89.0444,"dy":0.0017,"dx":0.0017,"nx":28,"ny":28,"refTime":"2024-07-29T09:00:00:Z","depth":0,"parameterNumber":2,"parameterNumberName":"U-component_of_WINDS"},"data":[0,0,0,0,0,0,0,0,0,0,0,0,0,0,0,0,0,0,0,0,0,0,0,0,0,0,0,0,0,0,0,0,0,0,0,0,0,0,0,0,0,0,0,0,0,0,0,0,0,0,0,0,0,0,0,0,0,0,4.3942,4.3944,0,4.4055,4.4056,4.4057,4.3975,4.3971,4.3968,4.3964,4.408,4.4086,4.4093,0,0,0,0,0,0,0,0,0,0,0,0,0,4.3654,4.366,4.3942,4.3944,4.3945,4.4055,4.4056,4.4058,4.3976,4.3971,4.3967,4.3963,4.4078,4.4085,4.4093,0,0,0,0,0,0,0,0,0,0,0,0,0,4.3774,4.3662,4.3942,4.3917,4.3916,4.4054,4.4056,4.4058,4.3977,4.3971,4.3966,4.3961,4.4075,4.4085,4.4094,4.4263,0,0,4.4124,4.4128,0,0,0,0,0,0,0,0,4.3768,4.3785,4.392,4.3919,4.3918,4.3995,4.3997,4.4127,4.3978,4.3954,4.3964,4.3958,4.4056,4.4067,4.41,4.4268,4.4273,4.4125,4.4131,4.4135,4.4138,0,0,0,0,0,0,0,4.376,4.378,4.3987,4.3922,4.3921,4.39,4.3911,4.4021,4.4034,4.3955,4.395,4.3964,4.4055,4.4091,4.4102,4.4275,4.4124,4.4133,4.4139,4.4143,4.4583,4.4589,0,0,0,0,0,0,4.3754,4.3773,4.3983,4.399,4.3828,4.391,4.3922,4.3976,4.4033,4.4036,4.3969,4.396,4.4077,4.4091,4.4106,4.4304,4.4135,4.4144,4.4149,4.4577,4.4584,4.4591,0,0,0,0,0,0,4.3748,4.3773,4.3979,4.388,4.3905,4.392,4.3982,4.3981,4.4017,4.4043,4.4044,4.4003,4.4073,4.4092,4.4224,4.4307,4.4148,4.4157,4.457,4.4579,4.4587,4.4703,0,0,0,0,0,0,4.374,4.3772,4.3836,4.3882,4.391,4.4095,4.3987,4.3987,4.4034,4.4024,4.4076,4.4079,4.4071,4.421,4.4233,4.4317,4.4165,4.4563,4.4574,4.4585,4.4692,4.4715,4.4735,0,0,0,0,0,4.373,4.3865,4.384,4.3866,4.3992,4.41,4.4116,4.4104,4.4041,4.4106,4.4122,4.4077,4.4295,4.4224,4.425,4.4338,4.4557,4.4571,4.4584,4.4682,4.471,4.4734,0,0,0,0,0,0,4.3829,4.3871,4.3843,4.3998,4.4046,4.4086,4.4167,4.4134,4.4201,4.4189,4.417,4.4183,4.4319,4.4342,4.4263,4.4502,4.4416,4.4435,4.4482,4.4509,4.453,4.452,4.4173,0,0,0,0,0,4.3869,4.3954,4.3986,4.4119,4.4145,4.4152,4.4199,4.4185,4.4234,4.4254,4.4279,4.4329,4.4407,4.446,4.4534,4.4696,4.4704,4.4769,4.479,4.4808,4.4823,4.4907,4.4935,4.4634,4.4634,4.4634,0,0,4.3953,4.3986,4.4041,4.414,4.4175,4.4262,4.417,4.4267,4.433,4.4269,4.4393,4.4414,4.4467,4.4613,4.4679,4.4636,4.4909,4.4824,4.4838,4.4844,4.4923,4.4952,4.4977,4.4643,4.4641,4.464,0,0,4.4148,4.4183,4.4296,4.4333,4.4388,4.4392,4.4419,4.4464,4.4475,4.4599,4.4553,4.4629,4.4767,4.4805,4.4843,4.5051,4.5012,4.5076,4.5186,4.5268,4.5291,4.5312,4.5383,4.5409,4.5092,4.5093,4.5093,0,4.4244,4.4374,4.4358,4.4458,4.4501,4.4449,4.4562,4.4599,4.4676,4.4707,4.4658,4.4827,4.486,4.5012,4.5062,4.5096,4.5125,4.5069,4.5289,4.531,4.5329,4.5397,4.5424,4.51,4.5099,4.5098,4.5098,0,4.4488,4.4579,4.4663,4.4737,4.4791,4.4897,4.4896,4.4952,4.4933,4.4942,4.5068,4.5105,4.5184,4.522,4.5203,4.537,4.5341,4.5292,4.5204,4.5365,4.5428,4.5454,4.511,4.5108,4.5106,4.5104,0,0,4.4749,4.4811,4.4842,4.4873,4.4929,4.4999,4.5102,4.5178,4.5225,4.528,4.5364,4.548,4.5434,4.5477,4.5464,4.5536,4.5694,4.5477,4.5478,4.5513,4.5875,4.591,4.594,4.5669,4.5674,4.5678,4.5869,0,4.4944,4.5122,4.511,4.5278,4.536,4.531,4.5399,4.5443,4.5453,4.5524,4.5535,4.5616,4.5551,4.5576,4.5645,4.566,4.5766,4.5646,4.5745,4.5748,4.5729,4.5973,4.6011,4.619,4.5894,4.5899,4.5902,0,4.5196,4.5257,4.5432,4.5473,4.5507,4.5587,4.5655,4.5724,4.5771,4.5773,4.582,4.5795,4.5897,4.5809,4.5947,4.5866,4.5906,4.5919,4.5926,4.5932,4.5833,4.5983,4.6247,4.6272,4.5941,4.5938,4.5935,0,4.5363,4.5491,4.5611,4.564,4.5691,4.5748,4.5772,4.5814,4.586,4.592,4.5949,4.602,4.6059,4.6114,4.6107,4.6044,4.6247,4.616,4.625,4.625,4.6293,4.629,4.6564,4.6324,4.6324,4.6323,4.6323,0,4.5581,4.5689,4.5686,4.576,4.5879,4.5864,4.5983,4.6,4.6038,4.6113,4.6076,4.6147,4.6136,4.6207,4.6203,4.6317,4.6335,4.6339,4.6335,4.634,4.6339,4.6364,4.635,4.6331,4.6329,4.6328,4.6326,0,4.5787,4.579,4.5918,4.5956,4.5967,4.6053,4.6085,4.6154,4.6161,4.6257,4.6278,4.6289,4.6371,4.6371,4.6464,4.6461,4.6599,4.6584,4.6583,4.6579,4.6668,4.6658,4.6964,4.7002,4.6742,4.6744,4.6746,0,4.5924,4.6006,4.6052,4.61,4.6127,4.6205,4.6251,4.6239,4.6289,4.6347,4.6409,4.6487,4.6548,4.6681,4.6696,4.6767,4.6751,4.6853,4.6761,4.6762,4.6748,4.6742,4.6748,4.687,4.6873,4.6876,4.6878,0,4.6166,4.6163,4.6231,4.6299,4.6355,4.6408,4.6458,4.6499,4.6492,4.6549,4.6632,4.6679,4.6774,4.6851,4.6918,4.6942,4.6908,4.6907,4.6931,4.6935,4.6929,4.693,4.6628,4.6899,4.6897,4.6896,4.6894,4.6894,4.6339,4.6408,4.6451,4.6527,4.6563,4.6609,4.6674,4.6689,4.6758,4.6833,4.6822,4.6914,4.6956,4.7044,4.7073,4.7144,4.7108,4.7143,4.7152,4.716,4.7168,4.6921,4.7157,4.7156,4.7155,4.7155,4.7154,0,4.6575,4.66,4.6671,4.6739,4.6799,4.6763,4.6815,4.6866,4.6947,4.699,4.7051,4.7144,4.7218,4.7239,4.731,4.7362,4.7348,4.7381,4.7375,4.7381,4.7198,4.7168,4.7391,4.7391,4.7391,4.7391,4.7391,4.739,4.6705,4.6819,4.6821,4.6951,4.6975,4.7063,4.7095,4.7137,4.7171,4.7277,4.7337,4.7351,4.7385,4.7457,4.7523,4.7527,4.7553,4.7592,4.7589,4.7418,4.7394,4.7371,4.7343,4.7598,4.7599,4.7765,4.7767,4.7768]},{"header":{"parameterUnit":"m.s-1","parameterCategory":1,"la1":30.2991,"la2":30.254,"lo1":-89.0895,"lo2":-89.0444,"dy":0.0017,"dx":0.0017,"nx":28,"ny":28,"refTime":"2024-07-29T09:00:00:Z","depth":0,"parameterNumber":3,"parameterNumberName":"V-component_of_WINDS"},"data":[0,0,0,0,0,0,0,0,0,0,0,0,0,0,0,0,0,0,0,0,0,0,0,0,0,0,0,0,0,0,0,0,0,0,0,0,0,0,0,0,0,0,0,0,0,0,0,0,0,0,0,0,0,0,0,0,0,0,3.194,3.194,0,3.1974,3.1975,3.1975,3.1936,3.1935,3.1933,3.1932,3.1967,3.197,3.1972,0,0,0,0,0,0,0,0,0,0,0,0,0,3.1839,3.1841,3.194,3.194,3.1941,3.1974,3.1975,3.1975,3.1937,3.1935,3.1933,3.1931,3.1967,3.1969,3.1972,0,0,0,0,0,0,0,0,0,0,0,0,0,3.1879,3.1841,3.194,3.1925,3.1925,3.1974,3.1975,3.1975,3.1937,3.1935,3.1933,3.1931,3.1966,3.1969,3.1972,3.2038,0,0,3.1983,3.1984,0,0,0,0,0,0,0,0,3.1877,3.1883,3.1927,3.1927,3.1926,3.1949,3.1952,3.1996,3.1938,3.1932,3.1932,3.193,3.1963,3.1966,3.1978,3.2039,3.2041,3.1983,3.1985,3.1987,3.1988,0,0,0,0,0,0,0,3.1874,3.1881,3.1953,3.1928,3.1927,3.1917,3.192,3.196,3.196,3.1933,3.193,3.1934,3.1962,3.1975,3.1978,3.2041,3.1983,3.1986,3.1988,3.199,3.2155,3.2158,0,0,0,0,0,0,3.1873,3.1879,3.1952,3.1955,3.1895,3.192,3.1924,3.1944,3.1959,3.1959,3.1936,3.1933,3.197,3.1974,3.1979,3.2055,3.1987,3.199,3.1992,3.2153,3.2156,3.2158,0,0,0,0,0,0,3.1871,3.188,3.1951,3.1916,3.1924,3.1924,3.1947,3.1945,3.1958,3.1962,3.1961,3.1949,3.1968,3.1975,3.2023,3.2056,3.1992,3.1995,3.215,3.2154,3.2157,3.2208,0,0,0,0,0,0,3.1868,3.1879,3.1905,3.1917,3.1926,3.1995,3.1949,3.1948,3.1964,3.1959,3.1974,3.1974,3.1967,3.2018,3.2026,3.2059,3.1997,3.2147,3.2152,3.2156,3.2203,3.2213,3.2221,0,0,0,0,0,3.1865,3.1918,3.1906,3.1915,3.1958,3.1997,3.2002,3.1993,3.1967,3.1992,3.1994,3.1974,3.2051,3.2023,3.2032,3.2067,3.2145,3.2151,3.2156,3.2199,3.2211,3.222,0,0,0,0,0,0,3.1911,3.192,3.1906,3.1966,3.1981,3.199,3.2022,3.2006,3.2028,3.2023,3.201,3.2014,3.2065,3.2071,3.204,3.2129,3.2094,3.2101,3.2124,3.2135,3.2143,3.214,3.2,0,0,0,0,0,3.1928,3.1959,3.1965,3.2016,3.2024,3.2022,3.2038,3.2029,3.2044,3.2051,3.2056,3.2072,3.2099,3.2117,3.2143,3.2204,3.2205,3.2232,3.2241,3.2248,3.2254,3.2284,3.2295,3.2176,3.2176,3.2175,0,0,3.1963,3.1972,3.1992,3.2026,3.2036,3.2067,3.2027,3.2063,3.2086,3.2056,3.2101,3.2106,3.2122,3.2176,3.2201,3.2183,3.2287,3.2254,3.226,3.2262,3.2291,3.2302,3.2312,3.2179,3.2179,3.2178,0,0,3.2044,3.2054,3.2097,3.2108,3.2124,3.2122,3.2132,3.2143,3.2145,3.219,3.2168,3.2195,3.2243,3.2254,3.2266,3.2349,3.233,3.2357,3.2403,3.2432,3.2442,3.245,3.2477,3.2488,3.2364,3.2364,3.2364,0,3.2086,3.2132,3.2121,3.2157,3.2172,3.2146,3.2188,3.22,3.2223,3.2234,3.2213,3.2271,3.228,3.2336,3.2356,3.2367,3.2377,3.2355,3.2441,3.245,3.2457,3.2483,3.2494,3.2367,3.2367,3.2366,3.2366,0,3.2182,3.2215,3.2247,3.227,3.2288,3.2328,3.2321,3.2341,3.233,3.2329,3.2375,3.2384,3.241,3.2423,3.2414,3.2477,3.2465,3.2443,3.2407,3.2472,3.2496,3.2506,3.2371,3.237,3.2369,3.2369,0,0,3.2294,3.2308,3.232,3.2328,3.2343,3.2368,3.2405,3.243,3.2446,3.2463,3.2493,3.2533,3.2513,3.2527,3.2518,3.2544,3.2606,3.2519,3.2519,3.2533,3.2674,3.2689,3.27,3.2594,3.2596,3.2597,3.2672,0,3.2372,3.2437,3.2427,3.2489,3.2517,3.2492,3.2524,3.2536,3.2536,3.256,3.256,3.2588,3.256,3.2567,3.2592,3.2593,3.2634,3.2588,3.262,3.2622,3.2616,3.2713,3.273,3.2799,3.2681,3.2683,3.2684,0,3.2474,3.2493,3.2557,3.2565,3.2577,3.2606,3.2627,3.265,3.2663,3.2661,3.2675,3.2661,3.2697,3.266,3.2709,3.2678,3.269,3.2693,3.2695,3.2697,3.2656,3.2716,3.2822,3.2832,3.2699,3.2698,3.2697,0,3.2546,3.2588,3.2631,3.264,3.2651,3.2672,3.2677,3.2687,3.2702,3.272,3.2729,3.2752,3.2764,3.2781,3.2772,3.2747,3.2822,3.2785,3.282,3.282,3.2836,3.2835,3.2943,3.2847,3.2846,3.2846,3.2846,0,3.2634,3.2674,3.2663,3.269,3.2733,3.2721,3.2764,3.2767,3.2776,3.2801,3.2781,3.2806,3.2794,3.2818,3.2811,3.2851,3.2857,3.2855,3.2853,3.2856,3.2856,3.2864,3.2858,3.2849,3.2848,3.2848,3.2847,0,3.2722,3.2717,3.2762,3.2768,3.277,3.2802,3.2806,3.2831,3.2829,3.2861,3.2868,3.2865,3.2891,3.2885,3.2914,3.2909,3.2959,3.2951,3.2954,3.2952,3.2986,3.2982,3.3102,3.3116,3.3012,3.3013,3.3014,0,3.2778,3.2808,3.2817,3.2832,3.2839,3.2865,3.2879,3.2868,3.2883,3.2898,3.2921,3.2945,3.2964,3.3007,3.3006,3.3028,3.302,3.306,3.3023,3.3024,3.3018,3.3016,3.3018,3.3067,3.3068,3.3069,3.307,0,3.2878,3.2873,3.2894,3.2915,3.2932,3.2948,3.2961,3.2975,3.2964,3.2983,3.3009,3.3024,3.3052,3.3076,3.3096,3.31,3.3083,3.3082,3.3091,3.3094,3.3094,3.3092,3.2973,3.3079,3.3078,3.3078,3.3077,3.3077,3.295,3.2974,3.2983,3.3007,3.3016,3.3029,3.3051,3.3051,3.3073,3.3095,3.3087,3.3116,3.3126,3.315,3.3157,3.3179,3.3164,3.3177,3.318,3.3183,3.3187,3.3091,3.3183,3.3183,3.3183,3.3182,3.3182,0,3.3046,3.3051,3.3073,3.3092,3.311,3.3092,3.3106,3.3122,3.3148,3.3159,3.3177,3.3206,3.3229,3.323,3.325,3.3268,3.326,3.3274,3.3271,3.3272,3.32,3.319,3.3279,3.3279,3.3279,3.3279,3.3279,3.3279,3.3099,3.3138,3.3134,3.3177,3.3181,3.3209,3.3218,3.3229,3.3237,3.327,3.3289,3.3289,3.3295,3.3316,3.3335,3.3335,3.3343,3.3359,3.3355,3.3288,3.3278,3.3269,3.3258,3.3361,3.3361,3.3425,3.3426,3.3426]}]]